Weather History for Incheon, South Korea

Change the Weather History Date:

Tuesday, February 19, 2013

  Actual Average (RKSS) Record (RKSS)
Temperature  
Mean Temperature 26 °F -  
Max Temperature 31 °F 42 °F 60 °F (2004)
Min Temperature 21 °F 22 °F 8 °F (2012)
Degree Days  
Heating Degree Days 39    
Moisture  
Dew Point 4 °F    
Average Humidity 36    
Maximum Humidity 59    
Minimum Humidity 18    
Precipitation  
Precipitation 0.00 in - - ()
Sea Level Pressure  
Sea Level Pressure 30.28 in    
Wind  
Wind Speed 14 mph ()    
Max Wind Speed 36 mph    
Max Gust Speed -    
Visibility 8.3 miles    
Events      
Averages and records for this station are not official NWS values.
T = Trace of Precipitation, MM = Missing Value Source: Averaged Metar Reports

Daily Weather History Graph

Daily Weather History Graph

Search for Another Location

Airport:

Trip Planner

Search our weather history database for the weather conditions in past years. The results will help you decide how hot, cold, wet, or windy it might be!

Date:

Astronomy

Feb. 19, 2013 Rise Set
Actual Time 7:19 AM KST 6:17 PM KST
Civil Twilight 6:52 AM KST 6:44 PM KST
Nautical Twilight 6:22 AM KST 7:14 PM KST
Astronomical Twilight 5:51 AM KST 7:44 PM KST
Moon 12:24 PM KST (2/19) 2:16 AM KST (2/19)
Length of Visible Light 11h 51m
Length of Day
10h 58m
Waxing Gibbous, 62% of the Moon is Illuminated
Feb 19
Waxing Gibbous
Feb 26
Full
Mar 5
Last Quarter
Mar 12
New
Mar 20
First Quarter

Hourly Weather History & Observations

Time (KST) Temp. Windchill Dew Point Humidity Pressure Visibility Wind Dir Wind Speed Gust Speed Precip Events Conditions
12:00 AM 28 °F - 12 °F 37% 30.19 in 12 mi NNW 16.1 mph - -   Clear
12:00 AM 26.6 °F 13.8 °F 8.6 °F 47% 30.18 in - North 17.3 mph - N/A   Clear
12:30 AM 26.6 °F 14.3 °F 8.6 °F 47% 30.21 in - North 16.1 mph - N/A   Clear
1:00 AM 26.6 °F 14.3 °F 6.8 °F 43% 30.21 in - North 16.1 mph - N/A   Clear
1:30 AM 26.6 °F 14.7 °F 6.8 °F 43% 30.21 in - North 15.0 mph - N/A   Clear
2:00 AM 26.6 °F 15.2 °F 5.0 °F 40% 30.21 in - North 13.8 mph - N/A   Clear
2:30 AM 26.6 °F 15.7 °F 5.0 °F 40% 30.24 in 6.2 mi North 12.7 mph - N/A   Mostly Cloudy
3:00 AM 26 °F - 9 °F 34% 30.21 in 12 mi North 22.4 mph - -   Clear
3:00 AM 26.6 °F 15.2 °F 1.4 °F 34% 30.21 in 6.2 mi North 13.8 mph - N/A   Mostly Cloudy
3:30 AM 26.6 °F 15.7 °F 1.4 °F 34% 30.21 in 6.2 mi North 12.7 mph - N/A   Mostly Cloudy
4:00 AM 26.6 °F 18.2 °F 1.4 °F 34% 30.21 in 6.2 mi North 8.1 mph - N/A   Mostly Cloudy
4:30 AM 26.6 °F 15.7 °F 5.0 °F 40% 30.24 in 6.2 mi North 12.7 mph - N/A   Mostly Cloudy
5:00 AM 26.6 °F 16.2 °F 3.2 °F 37% 30.24 in 6.2 mi North 11.5 mph - N/A   Mostly Cloudy
5:30 AM 26.6 °F 15.7 °F -0.4 °F 31% 30.24 in 6.2 mi North 12.7 mph - N/A   Mostly Cloudy
6:00 AM 26 °F - 7 °F 29% 30.25 in 12 mi North 9.2 mph - -   Clear
6:00 AM 26.6 °F 14.7 °F -0.4 °F 31% 30.24 in 6.2 mi North 15.0 mph - N/A   Mostly Cloudy
6:30 AM 26.6 °F 14.7 °F 1.4 °F 34% 30.27 in 6.2 mi North 15.0 mph - N/A   Mostly Cloudy
7:00 AM 26.6 °F 15.2 °F -0.4 °F 31% 30.27 in 6.2 mi North 13.8 mph - N/A   Mostly Cloudy
7:30 AM 24.8 °F 12.9 °F 1.4 °F 36% 30.27 in - North 13.8 mph - N/A   Clear
8:00 AM 24.8 °F 14.6 °F -0.4 °F 34% 30.30 in - North 10.4 mph - N/A   Clear
8:30 AM 26.6 °F 15.2 °F 1.4 °F 34% 30.30 in - North 13.8 mph - N/A   Clear
9:00 AM 27 °F - 6 °F 25% 30.32 in 12 mi NNW 22.4 mph - -   Clear
9:00 AM 26.6 °F 16.2 °F 1.4 °F 34% 30.30 in - North 11.5 mph - N/A   Clear
9:30 AM 28.4 °F 19.1 °F -0.4 °F 29% 30.33 in - North 10.4 mph - N/A   Clear
10:00 AM 30.2 °F 22.6 °F -2.2 °F 25% 30.33 in - North 8.1 mph - N/A   Clear
10:30 AM 30.2 °F 23.4 °F -2.2 °F 25% 30.33 in - North 6.9 mph - N/A   Clear
11:00 AM 30.2 °F 21.9 °F -0.4 °F 27% 30.33 in - NNW 9.2 mph - N/A   Clear
11:30 AM 30.2 °F 20.2 °F -2.2 °F 25% 30.33 in - NNW 12.7 mph - N/A   Clear
12:00 PM 30 °F - 3 °F 18% 30.30 in 12 mi NW 15.0 mph - -  
12:00 PM 30.2 °F 20.2 °F 1.4 °F 29% 30.30 in - NW 12.7 mph - N/A   Clear
12:30 PM 30.2 °F 20.8 °F 1.4 °F 29% 30.30 in - NW 11.5 mph - N/A   Clear
1:00 PM 30.2 °F 19.3 °F 1.4 °F 29% 30.30 in - NW 15.0 mph - N/A   Clear
1:30 PM 32.0 °F 22.1 °F 3.2 °F 30% 30.30 in - NW 13.8 mph - N/A   Clear
2:00 PM 32.0 °F 21.6 °F 8.6 °F 38% 30.30 in - WNW 15.0 mph - N/A   Clear
2:30 PM 32.0 °F 21.6 °F 5.0 °F 32% 30.27 in - WNW 15.0 mph - N/A   Clear
3:00 PM 31 °F - 13 °F 33% 30.28 in 12 mi NW 26.8 mph - -  
3:00 PM 32.0 °F 21.6 °F 6.8 °F 35% 30.27 in - WNW 15.0 mph - N/A   Clear
3:30 PM 32.0 °F 23.0 °F 8.6 °F 38% 30.27 in - WNW 11.5 mph - N/A   Clear
4:00 PM 32.0 °F 22.5 °F 8.6 °F 38% 30.27 in - West 12.7 mph - N/A   Clear
4:30 PM 32.0 °F 20.8 °F 8.6 °F 38% 30.27 in 6.2 mi WNW 17.3 mph - N/A   Partly Cloudy
5:00 PM 32.0 °F 19.2 °F 5.0 °F 32% 30.27 in 6.2 mi NW 23.0 mph - N/A   Partly Cloudy
6:00 PM 29 °F - 7 °F 25% 30.28 in 12 mi NW 17.3 mph - -   Scattered Clouds
6:00 PM 28.4 °F 15.8 °F 3.2 °F 34% 30.27 in 6.2 mi NW 18.4 mph - N/A   Partly Cloudy
6:30 PM 28.4 °F 15.8 °F 3.2 °F 34% 30.30 in 6.2 mi NW 18.4 mph - N/A   Partly Cloudy
7:00 PM 26.6 °F 13.8 °F 1.4 °F 34% 30.30 in - NW 17.3 mph - N/A   Clear
7:30 PM 26.6 °F 13.4 °F -0.4 °F 31% 30.33 in - NW 18.4 mph - N/A   Clear
8:00 PM 26.6 °F 13.1 °F 3.2 °F 37% 30.33 in - NW 19.6 mph - N/A   Clear
8:30 PM 24.8 °F 10.0 °F 3.2 °F 40% 30.33 in - NW 21.9 mph - N/A   Clear
9:00 PM 24 °F - 12 °F 46% 30.33 in 12 mi NW 35.8 mph - -  
9:00 PM 24.8 °F 11.5 °F 5.0 °F 43% 30.33 in - NW 17.3 mph - N/A   Clear
9:30 PM 23.0 °F 9.2 °F 6.8 °F 50% 30.36 in - NNW 17.3 mph - N/A   Clear
10:00 PM 23.0 °F 8.7 °F 6.8 °F 50% 30.36 in - NW 18.4 mph - N/A   Clear
10:30 PM 23.0 °F 9.6 °F 10.4 °F 59% 30.36 in - NNW 16.1 mph - N/A   Clear
11:00 PM 21.2 °F 8.3 °F 8.6 °F 58% 30.36 in - NNW 13.8 mph - N/A   Clear
11:30 PM 21.2 °F 8.3 °F 8.6 °F 58% 30.36 in - North 13.8 mph - N/A   Clear